EC1ABR Weather Reports


time (UTC)temp
C
wind
direction
speed
KPH
gust
KPH
rain 1hr
cm
rain 24hr
cm
rain mn
cm
humidity
%
barometer
mb
20260507020004 6 0 0.0 0.0 0.00 0.00 0.00 95 1008.7
20260507015614 6 0 0.0 0.0 0.00 0.00 0.00 95 1008.7
20260507014504 7 0 0.0 0.0 0.00 0.00 0.00 95 1008.7
20260507013603 7 0 0.0 0.0 0.00 0.00 0.00 95 1008.9
20260507012703 7 0 0.0 0.0 0.00 0.00 0.00 95 1009.1
20260507011803 7 0 0.0 0.0 0.00 0.00 0.00 91 1009.2
20260507010004 7 0 0.0 0.0 0.00 0.00 0.00 91 1009.5
20260507005403 7 0 0.0 0.0 0.00 0.00 0.00 90 1009.5
20260507004503 7 0 0.0 0.0 0.00 0.00 0.00 90 1009.5
20260507003603 7 0 0.0 0.0 0.00 0.00 0.00 90 1009.8
20260507002703 7 0 0.0 0.0 0.00 0.00 0.00 90 1009.8
20260507001803 7 0 0.0 0.0 0.00 0.00 0.00 90 1009.8
20260507001116 7 0 0.0 0.0 0.00 0.00 0.00 90 1010.0
20260507000004 7 0 0.0 0.0 0.00 0.00 0.00 90 1010.2
20260506235403 8 0 0.0 0.0 0.00 0.00 0.00 90 1010.2
20260506234503 8 0 0.0 0.0 0.00 0.00 0.00 89 1010.2
20260506233603 8 0 0.0 0.0 0.00 0.00 0.00 89 1010.4
20260506232917 8 0 0.0 0.0 0.00 0.00 0.00 89 1010.7
20260506232014 8 0 0.0 0.0 0.00 0.00 0.00 89 1010.7
20260506230903 8 0 0.0 0.0 0.00 0.00 0.00 88 1010.6
20260506230008 8 0 0.0 0.0 0.00 0.00 0.00 88 1010.8
20260506225403 8 0 0.0 0.0 0.00 0.00 0.00 87 1010.8
20260506224713 8 0 0.0 0.0 0.00 0.00 0.00 87 1010.9
20260506223603 9 0 0.0 0.0 0.00 0.00 0.00 86 1011.2
20260506222703 9 0 0.0 0.0 0.00 0.00 0.00 85 1011.5
20260506221803 9 0 0.0 0.0 0.00 0.00 0.00 85 1011.6
20260506220903 9 0 0.0 0.0 0.00 0.00 0.00 84 1011.6
20260506220003 10 0 0.0 0.0 0.00 0.00 0.00 84 1011.7
20260506215616 10 0 0.0 0.0 0.00 0.00 0.00 83 1011.9
20260506214503 10 0 0.0 0.0 0.00 0.00 0.00 83 1011.8
20260506213604 10 0 0.0 0.0 0.00 0.00 0.00 82 1012.0
20260506212704 11 0 0.0 0.0 0.00 0.00 0.00 82 1012.2
20260506211803 11 0 0.0 0.0 0.00 0.00 0.00 82 1012.0
20260506210903 11 0 0.0 0.0 0.00 0.00 0.00 81 1012.3
20260506210215 11 0 0.0 0.0 0.00 0.00 0.00 81 1012.1
20260506205617 11 0 0.0 0.0 0.00 0.00 0.00 81 1012.0
20260506204504 11 0 0.0 0.0 0.00 0.00 0.00 80 1012.0
20260506203816 11 0 0.0 0.0 0.00 0.00 0.00 80 1012.1
20260506202703 12 0 0.0 0.0 0.00 0.00 0.00 78 1012.2
20260506201803 12 0 0.0 0.0 0.00 0.00 0.00 77 1011.9
20260506200903 12 0 0.0 0.0 0.00 0.00 0.00 73 1011.7
20260506200003 12 0 0.0 0.0 0.00 0.00 0.00 72 1011.7
20260506195404 13 0 0.0 0.0 0.00 0.00 0.00 72 1011.7
20260506194504 13 0 0.0 0.0 0.00 0.00 0.00 71 1011.5
20260506193603 13 0 0.0 0.0 0.00 0.00 0.00 71 1011.3
20260506192703 13 0 0.0 0.0 0.00 0.00 0.00 70 1011.4
20260506191803 13 0 0.0 0.0 0.00 0.00 0.00 70 1011.2
20260506190903 14 0 0.0 0.0 0.00 0.00 0.00 69 1011.2
20260506190004 14 0 0.0 0.0 0.00 0.00 0.00 67 1011.2
20260506185404 14 0 0.0 0.0 0.00 0.00 0.00 66 1011.2
20260506184503 15 0 0.0 0.0 0.00 0.00 0.00 65 1011.4
20260506183604 15 0 0.0 0.0 0.00 0.00 0.00 65 1011.6
20260506182703 15 0 0.0 0.0 0.00 0.00 0.00 65 1011.5
20260506182017 15 0 0.0 0.0 0.00 0.00 0.00 66 1011.5
20260506180903 15 0 0.0 0.0 0.00 0.00 0.00 66 1011.5
20260506180005 15 0 0.0 0.0 0.00 0.00 0.00 65 1011.6
20260506175403 15 0 0.0 0.0 0.00 0.00 0.00 65 1011.6
20260506174503 15 0 0.0 0.0 0.00 0.00 0.00 64 1011.6
20260506173603 15 0 0.0 0.0 0.00 0.00 0.00 64 1012.0
20260506172703 15 0 0.0 0.0 0.00 0.00 0.00 63 1012.0
20260506171804 16 0 0.0 0.0 0.00 0.00 0.00 62 1012.2
20260506170903 16 0 0.0 0.0 0.00 0.00 0.00 62 1012.5
20260506170004 16 0 0.0 0.0 0.00 0.00 0.00 61 1012.3
20260506165403 16 0 0.0 0.0 0.00 0.00 0.00 61 1012.3
20260506164503 16 0 0.0 0.0 0.00 0.00 0.00 61 1012.0
20260506163603 16 0 0.0 0.0 0.00 0.00 0.00 61 1012.0
20260506162703 16 0 0.0 0.0 0.00 0.00 0.00 61 1011.7
20260506161804 16 0 0.0 0.0 0.00 0.00 0.00 63 1011.6
20260506160903 16 0 0.0 0.0 0.00 0.00 0.00 62 1011.5
20260506160004 16 0 0.0 0.0 0.00 0.00 0.00 63 1011.6
20260506155404 16 0 0.0 0.0 0.00 0.00 0.00 63 1011.6
20260506154503 16 0 0.0 0.0 0.00 0.00 0.00 63 1011.6
20260506153603 16 0 0.0 0.0 0.00 0.00 0.00 63 1011.8
20260506152703 16 0 0.0 0.0 0.00 0.00 0.00 63 1012.0
20260506151803 16 0 0.0 0.0 0.00 0.00 0.00 63 1012.0
20260506150903 16 0 0.0 0.0 0.00 0.00 0.00 63 1012.0
20260506150004 16 0 0.0 0.0 0.00 0.00 0.00 63 1011.9
20260506145403 16 0 0.0 0.0 0.00 0.00 0.00 63 1011.9
20260506144713 16 0 0.0 0.0 0.00 0.00 0.00 62 1011.9
20260506143603 16 0 0.0 0.0 0.00 0.00 0.00 63 1011.7
20260506142704 16 0 0.0 0.0 0.00 0.00 0.00 64 1011.7
20260506141804 16 0 0.0 0.0 0.00 0.00 0.00 63 1011.6
20260506140903 16 0 0.0 0.0 0.00 0.00 0.00 63 1011.7
20260506140004 16 0 0.0 0.0 0.00 0.00 0.00 62 1011.5
20260506135403 15 0 0.0 0.0 0.00 0.00 0.00 62 1011.8
20260506134713 15 0 0.0 0.0 0.00 0.00 0.00 63 1011.8
20260506133603 15 0 0.0 0.0 0.00 0.00 0.00 63 1011.9
20260506132913 15 0 0.0 0.0 0.00 0.00 0.00 64 1011.9
20260506131803 15 0 0.0 0.0 0.00 0.00 0.00 68 1011.6
20260506130903 15 0 0.0 0.0 0.00 0.00 0.00 69 1011.5
20260506130004 15 0 0.0 0.0 0.00 0.00 0.00 70 1011.6
20260506125404 15 0 0.0 0.0 0.00 0.00 0.00 71 1011.5
20260506124504 15 0 0.0 0.0 0.00 0.00 0.00 72 1011.2
20260506123603 14 0 0.0 0.0 0.00 0.00 0.00 72 1010.9
20260506122703 14 0 0.0 0.0 0.00 0.00 0.00 73 1011.0
20260506121803 14 0 0.0 0.0 0.00 0.00 0.00 74 1011.1
20260506120903 13 0 0.0 0.0 0.00 0.00 0.00 75 1010.9
20260506120004 13 0 0.0 0.0 0.00 0.00 0.00 76 1011.0
20260506115403 13 0 0.0 0.0 0.00 0.00 0.00 75 1011.2
20260506114503 13 0 0.0 0.0 0.00 0.00 0.00 78 1011.3
20260506113817 13 0 0.0 0.0 0.00 0.00 0.00 80 1011.4
20260506112703 13 0 0.0 0.0 0.00 0.00 0.00 80 1011.5
20260506112017 13 0 0.0 0.0 0.00 0.00 0.00 80 1011.6
20260506110904 13 0 0.0 0.0 0.00 0.00 0.00 78 1011.7
20260506110216 13 0 0.0 0.0 0.00 0.00 0.00 77 1011.9
20260506105403 13 0 0.0 0.0 0.00 0.00 0.00 76 1011.8
20260506104503 14 0 0.0 0.0 0.00 0.00 0.00 74 1011.8
20260506103603 14 0 0.0 0.0 0.00 0.00 0.00 75 1012.1
20260506102703 14 0 0.0 0.0 0.00 0.00 0.00 76 1011.9
20260506102017 14 0 0.0 0.0 0.00 0.00 0.00 80 1012.0
20260506100903 13 0 0.0 0.0 0.00 0.00 0.00 82 1011.9
20260506100004 13 0 0.0 0.0 0.00 0.00 0.00 83 1011.9
20260506095403 13 0 0.0 0.0 0.00 0.00 0.00 84 1011.9
20260506094503 13 0 0.0 0.0 0.00 0.00 0.00 85 1012.0
20260506093603 12 0 0.0 0.0 0.00 0.00 0.00 86 1012.0
20260506092703 12 0 0.0 0.0 0.00 0.00 0.00 87 1011.9
20260506091804 12 0 0.0 0.0 0.00 0.00 0.00 91 1012.1
20260506090903 12 0 0.0 0.0 0.00 0.00 0.00 91 1011.9
20260506090004 12 0 0.0 0.0 0.00 0.00 0.00 91 1012.2
20260506085614 11 0 0.0 0.0 0.00 0.00 0.00 92 1012.1
20260506084717 11 0 0.0 0.0 0.00 0.00 0.00 93 1012.2
20260506083603 11 0 0.0 0.0 0.00 0.00 0.00 94 1012.1
20260506082703 11 0 0.0 0.0 0.00 0.00 0.00 95 1012.1
20260506081803 11 0 0.0 0.0 0.00 0.00 0.00 95 1012.3
20260506081116 11 0 0.0 0.0 0.00 0.00 0.00 96 1012.2
20260506072917 10 0 0.0 0.0 0.00 0.00 0.00 97 1012.5
20260506071803 10 0 0.0 0.0 0.00 0.00 0.00 98 1012.4
20260506070903 10 0 0.0 0.0 0.00 0.00 0.00 98 1012.3
20260506062015 8 0 0.0 0.0 0.00 0.00 0.00 96 1012.0
20260506061117 8 0 0.0 0.0 0.00 0.00 0.00 96 1012.0
20260506050903 8 0 0.0 0.0 0.00 0.00 0.00 95 1011.9
20260506050215 8 0 0.0 0.0 0.00 0.00 0.00 95 1012.1
20260506044503 8 0 0.0 0.0 0.00 0.00 0.00 95 1012.0
20260506043816 8 0 0.0 0.0 0.00 0.00 0.00 95 1012.0
20260506042703 8 0 0.0 0.0 0.00 0.00 0.00 95 1012.1
20260506042016 8 0 0.0 0.0 0.00 0.00 0.00 95 1012.2
20260506041113 8 0 0.0 0.0 0.00 0.00 0.00 95 1012.3
20260506040004 8 0 0.0 0.0 0.00 0.00 0.00 95 1012.3
20260506035403 8 0 0.0 0.0 0.00 0.00 0.00 95 1012.4
20260506034503 8 0 0.0 0.0 0.00 0.00 0.00 95 1012.4
20260506033603 8 0 0.0 0.0 0.00 0.00 0.00 95 1012.6
20260506032703 9 0 0.0 0.0 0.00 0.00 0.00 95 1012.4
20260506031804 9 0 0.0 0.0 0.00 0.00 0.00 95 1012.6
20260506030903 9 0 0.0 0.0 0.00 0.00 0.00 95 1012.8
20260506030004 9 0 0.0 0.0 0.00 0.00 0.00 95 1012.7
20260506025403 9 0 0.0 0.0 0.00 0.00 0.00 95 1012.8
20260506024503 9 0 0.0 0.0 0.00 0.00 0.00 95 1012.8
20260506023603 9 0 0.0 0.0 0.00 0.00 0.00 95 1012.7
20260506022915 9 0 0.0 0.0 0.00 0.00 0.00 95 1013.0
20260506021803 9 0 0.0 0.0 0.00 0.00 0.00 95 1013.0
20260506020903 9 0 0.0 0.0 0.00 0.00 0.00 94 1013.0